sat.trackr.live / text

‹ back to catalog

STARLINK-35536

NORAD 66261 · 2025-245AD

PAYLOAD ACTIVE UNKNOWN

§ Identity

Operator
Country
US
Launch date
2025-10-29
Launch site
AFETR
Launch vehicle
Mass (kg)
RCS (m²)

Purposes: comms

External: N2YO · Heavens-Above · Gunter

§ Orbital elements

Epoch: 2026-09-20T20:54:43.262784Z

Period
94.01 min
Inclination
53.1591°
Eccentricity
0.0001047
Mean motion
15.31711585 rev/d
Perigee alt
470.0 km
Apogee alt
471.4 km
Semi-major
6,848.8 km
B*
4.5312e-4
RAAN
95.5912°
Arg perigee
104.1426°
Mean anomaly
255.9692°
Rev number
5,116

§ Raw data

STARLINK-355361 66261U 25245AD  26263.87133406  .00013727  00000+0  45312-3 0  99972 66261  53.1591  95.5912 0001047 104.1426 255.9692 15.31711585 51166

JSON: /api/v1/satellites/66261 · /tle

For live sub-satellite position, see the globe view (requires WebGL).

§ Visibility from observer

Set your observer location to see the next 7 days of passes ≥ 10°. The values pass through the URL so the page stays shareable.

No JS? Fill the form by hand. The geolocation button needs JavaScript.